GFSFLT2_850_spd_306.txt.gz
Wind_Speed
27 26 26 24 21 21 24 25 25 24 25 27 29 31 33 34 34 38 43 46 46 47 49 51 54 62 60
29 29 29 26 26 26 26 26 27 27 27 27 29 31 32 33 35 36 38 43 47 46 46 50 50 53 58
30 29 30 28 30 29 28 29 28 28 29 30 31 33 34 34 35 37 40 40 42 36 37 43 48 45 43
32 32 32 30 31 34 36 32 34 32 32 33 34 33 34 36 37 38 39 39 38 37 39 42 48 54 51
34 33 30 30 33 35 38 38 38 37 36 34 34 34 33 34 38 39 40 41 37 33 34 35 37 41 45
30 28 28 31 33 35 36 40 45 40 36 42 37 39 38 38 37 39 41 42 43 40 41 39 39 40 43
35 37 38 36 35 37 38 35 41 42 37 44 42 43 40 36 36 36 35 38 42 45 43 43 45 47 49
34 37 38 31 30 32 36 38 43 46 38 44 47 46 44 44 44 43 41 41 40 41 43 46 50 51 53
35 33 32 31 30 33 35 34 39 42 32 40 50 47 48 49 44 40 34 34 35 37 38 37 39 45 51
31 30 33 37 34 33 38 40 42 45 36 35 42 40 34 45 40 37 30 30 30 29 27 32 35 35 39
36 39 41 38 38 36 32 28 34 40 35 33 40 41 40 45 47 42 40 41 40 45 40 33 28 31 33
37 38 40 38 33 30 31 32 34 40 40 35 36 35 38 42 46 45 43 41 37 32 35 37 30 30 31
34 32 29 29 30 30 29 29 30 32 32 33 38 40 40 44 43 43 42 41 35 31 30 31 28 25 29
25 27 27 26 26 24 26 27 29 32 29 28 28 30 37 40 39 41 38 40 35 31 27 28 29 28 28
20 22 23 23 24 23 24 25 26 29 30 27 28 26 28 31 36 35 37 38 32 27 26 28 29 27 28
19 20 21 22 23 22 22 24 27 27 27 26 25 28 29 26 32 34 34 34 33 29 28 29 34 33 32
21 21 20 22 22 22 23 25 26 26 25 24 23 23 25 24 29 22 26 26 26 25 27 30 31 34 32

GFSFLT2_850_spd_309.txt.gz
Wind_Speed
22 22 21 19 17 17 17 18 17 15 16 17 18 19 20 23 25 26 27 29 32 35 36 38 41 43 45
23 23 24 21 21 21 20 21 22 20 20 19 19 21 22 23 25 26 28 30 32 33 37 40 40 43 45
23 22 25 24 24 22 23 23 24 23 23 23 22 22 23 24 25 26 28 29 31 33 35 37 41 44 46
23 23 25 25 26 28 29 27 28 27 26 24 24 25 24 24 25 26 29 30 32 33 34 38 40 43 47
30 26 27 24 25 28 32 33 32 33 32 29 29 28 27 26 27 27 28 29 31 33 36 38 40 44 47
31 32 23 20 27 26 29 35 41 29 32 38 35 36 34 32 29 29 30 32 33 35 37 38 41 43 46
29 27 24 24 27 32 35 33 35 34 34 44 37 41 38 37 34 33 33 34 37 37 38 40 40 42 46
30 30 31 29 28 28 31 34 36 34 30 44 30 42 42 42 40 37 37 36 36 34 36 39 40 41 42
27 30 30 30 28 29 28 31 39 31 25 36 40 42 45 46 43 40 35 33 34 34 37 39 38 39 43
31 31 28 27 27 30 34 39 41 41 30 33 36 31 39 42 40 39 38 37 37 38 40 39 38 39 41
25 28 28 28 31 35 33 33 37 36 24 30 37 31 31 44 46 42 41 44 45 43 42 40 42 42 47
34 35 32 29 28 28 28 26 30 35 34 33 36 30 37 43 44 38 34 42 44 44 42 40 39 39 37
32 31 29 26 23 25 26 27 29 29 28 28 29 30 34 41 44 44 39 41 44 44 40 37 40 35 36
20 21 24 26 25 24 24 24 25 28 26 24 24 24 31 36 38 41 39 41 42 41 39 40 39 35 33
19 20 19 20 21 21 22 23 23 25 27 25 23 23 26 28 36 38 37 39 39 40 40 41 39 35 33
18 18 19 21 22 23 21 22 25 26 27 27 25 25 27 29 26 29 32 33 31 33 34 40 42 36 35
20 21 22 23 22 24 23 23 24 26 26 24 23 25 28 29 32 27 24 26 29 27 33 38 37 39 38

GFSFLT2_850_spd_315.txt.gz
Wind_Speed
17 18 17 15 14 15 16 17 18 19 19 19 19 19 18 17 16 16 16 17 17 17 19 20 21 21 23
19 19 17 15 16 17 17 16 18 19 21 22 23 22 22 22 21 19 18 16 15 15 16 17 19 20 21
23 20 19 16 15 15 16 19 18 18 19 21 21 24 25 24 23 22 21 19 19 18 17 17 17 18 20
20 21 20 16 15 16 18 16 15 14 17 20 20 22 23 23 23 22 22 22 22 22 22 22 21 21 21
19 19 21 20 22 17 18 21 20 17 19 21 20 19 21 20 21 22 23 23 23 24 26 25 25 25 25
25 26 28 29 26 23 25 23 23 21 24 23 16 19 21 23 25 24 23 24 24 25 26 27 28 28 28
28 28 26 20 21 21 21 23 26 26 29 30 27 31 30 30 25 25 25 25 26 27 27 28 29 29 30
26 29 29 28 27 30 33 35 35 32 29 33 26 25 24 26 26 25 27 30 31 30 29 28 29 29 30
22 24 25 27 28 31 35 36 37 28 24 26 26 27 32 39 40 37 33 29 28 29 30 29 27 27 29
24 24 24 27 26 28 32 35 37 37 33 26 27 31 35 36 30 18 22 18 16 22 24 28 29 28 30
27 27 24 25 27 27 34 35 34 37 36 32 34 34 35 37 32 30 30 36 32 31 30 28 28 29 32
30 31 31 30 29 28 26 28 31 34 34 37 37 34 34 38 38 39 35 33 31 30 30 30 28 28 30
28 27 27 28 28 29 32 36 40 41 39 37 38 37 38 41 41 36 34 32 31 32 28 28 29 31 34
26 26 25 26 28 27 29 28 29 30 28 28 29 30 33 34 34 37 34 34 33 33 31 32 32 33 35
22 23 23 23 23 22 23 24 26 28 28 27 27 27 29 29 32 32 33 35 33 31 29 32 32 32 33
23 23 24 24 24 24 25 26 28 29 29 29 28 29 29 30 28 30 30 31 27 26 27 33 38 34 34
25 26 25 26 24 26 26 26 28 29 30 30 30 29 30 30 30 27 29 29 30 32 34 36 41 41 38

GFSFLT2_850_spd_318.txt.gz
Wind_Speed
17 17 20 20 17 15 15 15 15 15 15 16 17 17 18 18 18 18 18 18 18 19 19 19 20 20 20
17 17 19 18 17 17 16 15 16 16 16 17 18 19 21 22 21 20 19 19 18 19 18 17 18 19 19
20 20 20 18 17 16 16 16 16 15 14 13 15 17 19 21 23 22 21 20 21 20 20 19 18 18 18
20 21 18 14 14 15 16 15 15 13 13 16 19 18 19 19 20 20 21 22 22 22 22 22 22 22 21
19 18 17 17 19 20 21 18 17 19 19 21 20 21 18 18 18 18 19 20 22 23 23 24 24 25 24
21 23 22 23 24 28 26 25 26 20 19 22 23 26 27 25 25 26 25 23 22 24 26 26 26 27 27
25 23 23 22 26 31 32 29 26 21 26 34 34 32 25 24 23 23 23 21 22 25 25 26 28 29 30
24 25 25 23 22 23 25 28 30 30 29 33 29 27 22 22 21 22 23 24 25 28 31 32 31 30 30
19 20 22 24 25 27 30 29 32 30 19 26 22 28 33 34 34 35 36 36 30 29 26 26 28 31 33
22 22 21 24 24 26 28 32 35 36 31 30 31 28 32 36 28 23 18 22 25 25 25 20 22 25 31
24 21 23 26 28 29 27 30 33 35 35 34 32 32 34 36 40 38 33 29 29 29 32 37 32 28 31
21 25 29 28 27 25 26 28 29 30 30 30 32 31 34 41 38 36 35 35 34 34 31 29 28 27 29
26 28 26 26 27 28 30 32 35 38 38 37 39 39 38 40 39 36 35 35 32 30 29 27 27 27 30
25 24 24 24 24 24 27 27 28 29 25 24 25 27 30 31 32 34 31 31 29 30 31 31 31 31 31
23 23 24 24 25 23 22 23 25 28 28 26 25 26 28 30 32 32 32 32 30 31 30 32 30 30 29
23 24 25 25 27 27 26 26 27 29 30 29 29 29 30 32 30 32 30 30 29 27 27 32 35 32 31
24 24 26 26 26 27 28 28 29 30 31 30 29 28 30 31 34 27 28 31 31 32 32 34 38 38 37

GFSFLT2_850_spd_321.txt.gz
Wind_Speed
16 17 19 20 18 17 16 15 13 13 13 14 15 16 16 17 18 19 18 18 16 15 14 14 15 17 19
14 15 15 16 16 15 14 15 14 13 12 13 14 15 16 17 20 20 20 21 21 21 20 18 16 16 17
16 16 15 14 14 12 12 11 12 13 12 12 11 11 13 15 16 18 20 20 21 22 23 23 22 21 19
18 18 16 12 11 10 11 10 12 12 12 12 14 17 17 17 17 17 19 19 20 22 23 23 24 25 25
19 17 15 13 12 15 18 17 15 14 16 16 17 18 18 17 18 19 18 18 17 18 20 21 23 25 26
17 18 16 16 17 18 17 21 20 11 15 18 17 20 20 24 26 22 22 24 23 23 22 22 25 25 24
21 20 18 16 18 22 25 25 27 27 27 31 31 33 29 23 20 19 20 19 19 20 21 21 23 24 26
23 24 24 20 17 18 20 23 24 24 22 30 26 28 26 25 20 22 24 27 28 29 29 29 30 32 32
18 18 18 19 22 25 22 21 21 23 26 28 29 31 31 32 33 33 31 29 28 28 26 25 26 27 30
18 19 21 21 20 21 23 27 30 32 28 26 29 29 32 33 27 27 27 29 33 34 35 28 27 30 31
20 21 20 21 23 24 25 26 28 31 30 30 29 29 31 34 36 36 37 40 42 40 33 32 33 33 36
20 24 21 22 25 25 25 25 26 29 31 31 32 31 32 36 36 36 41 44 39 35 32 31 31 35 37
22 23 24 25 25 25 25 26 27 28 30 33 36 38 38 39 39 38 34 32 30 30 28 26 26 26 28
23 23 24 26 25 24 24 24 26 27 23 23 24 24 27 29 29 31 29 31 29 28 27 29 28 29 30
24 24 24 23 24 23 24 25 27 28 28 25 23 24 28 29 31 32 32 32 31 31 31 31 30 28 28
25 25 26 26 25 25 26 27 27 28 29 27 26 27 28 30 28 32 32 34 32 29 28 31 34 32 31
25 25 26 27 26 27 27 28 29 30 29 28 27 27 30 32 29 24 27 28 29 33 34 35 37 35 32

GFSFLT2_850_spd_324.txt.gz
Wind_Speed
13 14 16 18 18 17 17 16 14 13 13 13 13 14 14 14 16 17 18 18 18 16 14 14 14 14 15
13 14 16 16 16 15 14 14 13 13 14 13 13 13 12 13 14 14 16 18 20 20 20 20 18 16 16
15 14 13 13 13 13 11 10 11 12 12 13 13 11 10 11 12 15 15 16 17 19 20 22 22 20 19
16 17 15 12 12 11 10 11 13 13 13 13 13 15 16 15 16 16 16 17 17 16 16 17 19 21 21
16 17 15 11 10 12 16 16 15 14 16 15 15 16 17 18 17 18 21 20 19 18 18 18 19 20 21
14 14 14 14 15 16 17 18 21 16 17 18 18 19 18 20 24 26 23 21 21 21 19 18 19 21 23
17 17 18 14 15 17 19 19 18 15 17 22 19 22 21 23 23 21 20 18 17 16 19 22 23 23 23
26 25 24 23 21 18 15 19 24 24 23 28 22 26 25 23 23 19 18 21 24 24 24 23 24 27 29
18 19 18 17 17 21 22 20 22 23 23 28 29 30 29 29 27 26 26 28 26 27 23 24 27 26 23
17 18 18 19 20 21 23 25 25 28 25 25 28 27 33 34 28 28 29 28 28 28 32 36 36 35 33
20 19 19 19 18 18 20 23 28 30 29 27 29 28 28 32 35 35 35 36 37 38 40 40 37 33 35
19 20 19 19 18 18 23 25 25 27 27 27 30 31 34 38 41 39 39 38 37 36 34 31 29 28 29
17 16 17 17 21 24 24 24 25 25 25 25 27 28 30 33 35 35 33 33 31 31 29 29 28 27 28
24 21 19 20 22 24 24 23 26 27 24 23 23 24 26 28 29 31 32 32 33 31 31 32 30 29 30
24 23 23 24 26 25 24 25 27 28 28 24 22 23 25 27 31 33 33 34 34 33 31 33 34 33 30
23 25 25 26 28 28 28 28 29 29 29 27 25 25 27 30 29 30 29 28 26 27 28 32 34 32 32
20 22 25 27 27 28 28 28 29 29 29 28 27 26 28 33 31 24 25 26 26 27 27 30 35 36 34

GFSFLT2_850_spd_327.txt.gz
Wind_Speed
11 13 14 16 17 17 17 15 14 14 14 14 14 14 14 14 14 15 16 17 17 15 13 13 13 13 13
12 14 15 16 16 15 14 14 14 13 13 14 14 14 12 10 12 12 13 15 15 15 18 18 15 15 15
13 13 14 14 14 13 12 11 11 12 13 13 14 14 14 13 12 14 17 17 18 18 19 19 19 19 18
14 14 14 13 13 13 11 11 12 12 13 14 14 15 15 15 17 18 19 18 18 18 16 16 16 16 17
13 14 13 11 11 13 14 14 13 14 14 13 14 16 16 16 18 18 19 20 21 21 20 19 20 20 21
13 13 13 15 16 16 15 15 17 13 13 14 16 17 17 18 20 22 23 23 22 20 18 16 17 19 21
16 16 17 15 16 16 18 19 17 12 17 21 18 19 16 16 18 20 20 18 19 17 19 19 21 22 24
25 25 25 22 19 17 15 15 16 17 14 21 18 23 23 24 23 22 22 21 21 21 22 22 25 24 28
20 20 19 18 16 17 20 19 18 22 23 26 25 26 28 29 27 26 25 23 22 21 21 22 22 26 31
16 18 18 19 21 23 24 25 25 24 21 24 27 28 31 31 25 26 27 27 28 28 27 27 29 33 38
22 20 20 20 21 20 21 22 24 26 23 26 30 29 29 31 34 31 32 31 30 31 31 31 32 31 33
26 28 24 20 20 18 20 22 23 27 25 25 29 28 30 33 35 32 31 30 30 30 29 28 27 26 26
28 25 22 17 18 20 21 23 26 26 26 25 26 26 27 30 33 33 33 33 31 28 28 29 30 29 31
25 25 21 20 21 20 21 22 25 25 23 23 24 25 28 29 29 33 33 34 32 31 30 31 30 30 31
29 28 26 22 23 22 23 24 27 28 28 26 23 23 25 27 32 33 34 33 31 29 29 31 30 30 30
23 24 23 26 26 25 26 27 29 29 29 27 25 25 27 30 30 30 27 28 26 26 26 29 34 31 30
20 22 23 21 23 25 27 28 29 29 29 26 26 26 28 34 33 26 27 27 28 29 29 30 34 35 33